Wetterdaten: Montag, 28.09.2015
Datum Zeit Temp. A. Feuchte A. Luftdruck Regen Wind Richtung Richtung Sonnenschein ET UV Solar Taupunkt Windchill Windben Empfang
28.09.2015 00:02 8,8 C 76 % 1031,0 hPa 0,0 l/m 0,0 km/h (0 Bft) O-SO 110 0 min 0,000 mm 0,0 UV-I 0 W/m 4,8 C 8,8 C 0,0 km/h (0 Bft) 0,00 %
28.09.2015 00:07 8,8 C 76 % 1030,8 hPa 0,0 l/m 0,0 km/h (0 Bft) O-SO 109 0 min 0,000 mm 0,0 UV-I 0 W/m 4,8 C 8,8 C 0,0 km/h (0 Bft) 0,00 %
28.09.2015 00:12 8,8 C 77 % 1031,0 hPa 0,0 l/m 0,0 km/h (0 Bft) O-SO 109 0 min 0,000 mm 0,0 UV-I 0 W/m 5,0 C 8,8 C 0,0 km/h (0 Bft) 0,00 %
28.09.2015 00:17 8,7 C 76 % 1031,0 hPa 0,0 l/m 0,0 km/h (0 Bft) O-SO 109 0 min 0,000 mm 0,0 UV-I 0 W/m 4,7 C 8,7 C 0,0 km/h (0 Bft) 0,00 %
28.09.2015 00:22 8,6 C 77 % 1031,0 hPa 0,0 l/m 0,0 km/h (0 Bft) O-SO 109 0 min 0,000 mm 0,0 UV-I 0 W/m 4,8 C 8,6 C 0,0 km/h (0 Bft) 0,00 %
28.09.2015 00:27 8,6 C 78 % 1031,0 hPa 0,0 l/m 0,0 km/h (0 Bft) O-SO 109 0 min 0,000 mm 0,0 UV-I 0 W/m 5,0 C 8,6 C 0,0 km/h (0 Bft) 0,00 %
28.09.2015 00:32 8,5 C 78 % 1030,9 hPa 0,0 l/m 0,0 km/h (0 Bft) O-SO 109 0 min 0,000 mm 0,0 UV-I 0 W/m 4,9 C 8,5 C 0,0 km/h (0 Bft) 0,00 %
28.09.2015 00:37 8,5 C 78 % 1031,0 hPa 0,0 l/m 0,0 km/h (0 Bft) O-SO 109 0 min 0,000 mm 0,0 UV-I 0 W/m 4,9 C 8,5 C 0,0 km/h (0 Bft) 0,00 %
28.09.2015 00:42 8,5 C 78 % 1031,0 hPa 0,0 l/m 0,0 km/h (0 Bft) O-SO 109 0 min 0,000 mm 0,0 UV-I 0 W/m 4,9 C 8,5 C 0,0 km/h (0 Bft) 0,00 %
28.09.2015 00:47 8,4 C 76 % 1030,9 hPa 0,0 l/m 0,0 km/h (0 Bft) O-SO 110 0 min 0,000 mm 0,0 UV-I 0 W/m 4,4 C 8,4 C 0,0 km/h (0 Bft) 0,00 %
28.09.2015 00:52 8,4 C 76 % 1030,9 hPa 0,0 l/m 0,0 km/h (0 Bft) O-SO 109 0 min 0,000 mm 0,0 UV-I 0 W/m 4,4 C 8,4 C 0,0 km/h (0 Bft) 0,00 %
28.09.2015 00:57 8,4 C 75 % 1030,8 hPa 0,0 l/m 0,0 km/h (0 Bft) O-SO 109 0 min 0,000 mm 0,0 UV-I 0 W/m 4,2 C 8,4 C 0,0 km/h (0 Bft) 0,00 %
28.09.2015 01:02 8,4 C 75 % 1031,1 hPa 0,0 l/m 0,0 km/h (0 Bft) O-SO 109 0 min 0,000 mm 0,0 UV-I 0 W/m 4,2 C 8,4 C 0,0 km/h (0 Bft) 0,00 %
28.09.2015 01:07 8,4 C 76 % 1031,0 hPa 0,0 l/m 0,0 km/h (0 Bft) O-SO 110 0 min 0,000 mm 0,0 UV-I 0 W/m 4,4 C 8,4 C 0,0 km/h (0 Bft) 0,00 %
28.09.2015 01:12 8,4 C 75 % 1031,1 hPa 0,0 l/m 0,0 km/h (0 Bft) O-SO 104 0 min 0,000 mm 0,0 UV-I 0 W/m 4,2 C 8,4 C 0,0 km/h (0 Bft) 0,00 %
28.09.2015 01:17 8,5 C 75 % 1031,2 hPa 0,0 l/m 0,0 km/h (0 Bft) O-NO 71 0 min 0,000 mm 0,0 UV-I 0 W/m 4,3 C 8,5 C 0,0 km/h (0 Bft) 0,00 %
28.09.2015 01:22 8,5 C 75 % 1031,2 hPa 0,0 l/m 0,0 km/h (0 Bft) S 173 0 min 0,000 mm 0,0 UV-I 0 W/m 4,3 C 8,5 C 0,0 km/h (0 Bft) 0,00 %
28.09.2015 01:27 8,5 C 75 % 1031,2 hPa 0,0 l/m 0,0 km/h (0 Bft) S 173 0 min 0,000 mm 0,0 UV-I 0 W/m 4,3 C 8,5 C 0,0 km/h (0 Bft) 0,00 %
28.09.2015 01:32 8,5 C 76 % 1031,0 hPa 0,0 l/m 0,0 km/h (0 Bft) O-SO 109 0 min 0,000 mm 0,0 UV-I 0 W/m 4,5 C 8,5 C 0,0 km/h (0 Bft) 0,00 %
28.09.2015 01:37 8,5 C 76 % 1031,0 hPa 0,0 l/m 0,0 km/h (0 Bft) O-NO 64 0 min 0,000 mm 0,0 UV-I 0 W/m 4,5 C 8,5 C 0,0 km/h (0 Bft) 0,00 %
28.09.2015 01:42 8,5 C 78 % 1031,2 hPa 0,0 l/m 0,0 km/h (0 Bft) O 79 0 min 0,000 mm 0,0 UV-I 0 W/m 4,9 C 8,5 C 0,0 km/h (0 Bft) 0,00 %
28.09.2015 01:47 8,5 C 76 % 1031,3 hPa 0,0 l/m 0,0 km/h (0 Bft) O 94 0 min 0,000 mm 0,0 UV-I 0 W/m 4,5 C 8,5 C 0,0 km/h (0 Bft) 0,00 %
28.09.2015 01:52 8,5 C 76 % 1031,1 hPa 0,0 l/m 0,0 km/h (0 Bft) O 94 0 min 0,000 mm 0,0 UV-I 0 W/m 4,5 C 8,5 C 0,0 km/h (0 Bft) 0,00 %
28.09.2015 01:57 8,5 C 78 % 1031,2 hPa 0,0 l/m 0,0 km/h (0 Bft) O 94 0 min 0,000 mm 0,0 UV-I 0 W/m 4,9 C 8,5 C 0,0 km/h (0 Bft) 0,00 %
28.09.2015 02:02 8,5 C 79 % 1031,3 hPa 0,0 l/m 0,0 km/h (0 Bft) O 94 0 min 0,000 mm 0,0 UV-I 0 W/m 5,1 C 8,5 C 0,0 km/h (0 Bft) 0,00 %
28.09.2015 02:07 8,5 C 78 % 1031,3 hPa 0,0 l/m 0,0 km/h (0 Bft) O 95 0 min 0,000 mm 0,0 UV-I 0 W/m 4,9 C 8,5 C 0,0 km/h (0 Bft) 0,00 %
28.09.2015 02:12 8,4 C 78 % 1031,2 hPa 0,0 l/m 0,0 km/h (0 Bft) O 95 0 min 0,000 mm 0,0 UV-I 0 W/m 4,8 C 8,4 C 0,0 km/h (0 Bft) 0,00 %
28.09.2015 02:17 8,4 C 78 % 1031,2 hPa 0,0 l/m 0,0 km/h (0 Bft) O-SO 107 0 min 0,000 mm 0,0 UV-I 0 W/m 4,8 C 8,4 C 0,0 km/h (0 Bft) 0,00 %
28.09.2015 02:22 8,4 C 78 % 1031,2 hPa 0,0 l/m 0,0 km/h (0 Bft) O-SO 107 0 min 0,000 mm 0,0 UV-I 0 W/m 4,8 C 8,4 C 0,0 km/h (0 Bft) 0,00 %
28.09.2015 02:27 8,4 C 80 % 1031,3 hPa 0,0 l/m 0,0 km/h (0 Bft) O-SO 108 0 min 0,000 mm 0,0 UV-I 0 W/m 5,2 C 8,4 C 0,0 km/h (0 Bft) 0,00 %
28.09.2015 02:32 8,4 C 80 % 1031,3 hPa 0,0 l/m 0,0 km/h (0 Bft) O-NO 62 0 min 0,000 mm 0,0 UV-I 0 W/m 5,2 C 8,4 C 0,0 km/h (0 Bft) 0,00 %
28.09.2015 02:37 8,4 C 80 % 1031,2 hPa 0,0 l/m 0,0 km/h (0 Bft) O 93 0 min 0,000 mm 0,0 UV-I 0 W/m 5,2 C 8,4 C 0,0 km/h (0 Bft) 0,00 %
28.09.2015 02:42 8,4 C 79 % 1031,3 hPa 0,0 l/m 0,0 km/h (0 Bft) O-NO 65 0 min 0,000 mm 0,0 UV-I 0 W/m 5,0 C 8,4 C 0,0 km/h (0 Bft) 0,00 %
28.09.2015 02:47 8,4 C 78 % 1031,2 hPa 0,0 l/m 0,0 km/h (0 Bft) O-NO 59 0 min 0,000 mm 0,0 UV-I 0 W/m 4,8 C 8,4 C 0,0 km/h (0 Bft) 0,00 %
28.09.2015 02:52 8,4 C 78 % 1031,1 hPa 0,0 l/m 0,0 km/h (0 Bft) S-SO 167 0 min 0,000 mm 0,0 UV-I 0 W/m 4,8 C 8,4 C 0,0 km/h (0 Bft) 0,00 %
28.09.2015 02:57 8,4 C 78 % 1031,2 hPa 0,0 l/m 0,0 km/h (0 Bft) O 81 0 min 0,000 mm 0,0 UV-I 0 W/m 4,8 C 8,4 C 0,0 km/h (0 Bft) 0,00 %
28.09.2015 03:02 8,4 C 78 % 1031,1 hPa 0,0 l/m 0,0 km/h (0 Bft) O-NO 66 0 min 0,000 mm 0,0 UV-I 0 W/m 4,8 C 8,4 C 0,0 km/h (0 Bft) 0,00 %
28.09.2015 03:07 8,4 C 78 % 1031,2 hPa 0,0 l/m 0,0 km/h (0 Bft) O-NO 69 0 min 0,000 mm 0,0 UV-I 0 W/m 4,8 C 8,4 C 0,0 km/h (0 Bft) 0,00 %
28.09.2015 03:12 8,4 C 78 % 1031,3 hPa 0,0 l/m 0,0 km/h (0 Bft) O 85 0 min 0,000 mm 0,0 UV-I 0 W/m 4,8 C 8,4 C 0,0 km/h (0 Bft) 0,00 %
28.09.2015 03:17 8,4 C 78 % 1031,2 hPa 0,0 l/m 0,0 km/h (0 Bft) O 88 0 min 0,000 mm 0,0 UV-I 0 W/m 4,8 C 8,4 C 0,0 km/h (0 Bft) 0,00 %
28.09.2015 03:22 8,4 C 78 % 1031,3 hPa 0,0 l/m 0,0 km/h (0 Bft) S 175 0 min 0,000 mm 0,0 UV-I 0 W/m 4,8 C 8,4 C 0,0 km/h (0 Bft) 0,00 %
28.09.2015 03:27 8,4 C 79 % 1031,1 hPa 0,0 l/m 0,0 km/h (0 Bft) O 82 0 min 0,000 mm 0,0 UV-I 0 W/m 5,0 C 8,4 C 0,0 km/h (0 Bft) 0,00 %
28.09.2015 03:32 8,4 C 79 % 1031,2 hPa 0,0 l/m 0,0 km/h (0 Bft) O 79 0 min 0,000 mm 0,0 UV-I 0 W/m 5,0 C 8,4 C 0,0 km/h (0 Bft) 0,00 %
28.09.2015 03:37 8,4 C 80 % 1031,2 hPa 0,0 l/m 0,0 km/h (0 Bft) O-NO 60 0 min 0,000 mm 0,0 UV-I 0 W/m 5,2 C 8,4 C 0,0 km/h (0 Bft) 0,00 %
28.09.2015 03:42 8,4 C 79 % 1031,3 hPa 0,0 l/m 0,0 km/h (0 Bft) O 86 0 min 0,000 mm 0,0 UV-I 0 W/m 5,0 C 8,4 C 0,0 km/h (0 Bft) 0,00 %
28.09.2015 03:47 8,3 C 78 % 1031,1 hPa 0,0 l/m 0,0 km/h (0 Bft) O-NO 60 0 min 0,000 mm 0,0 UV-I 0 W/m 4,7 C 8,3 C 0,0 km/h (0 Bft) 0,00 %
28.09.2015 03:52 8,3 C 80 % 1031,2 hPa 0,0 l/m 0,0 km/h (0 Bft) O-NO 63 0 min 0,000 mm 0,0 UV-I 0 W/m 5,1 C 8,3 C 0,0 km/h (0 Bft) 0,00 %
28.09.2015 03:57 8,3 C 81 % 1031,3 hPa 0,0 l/m 0,0 km/h (0 Bft) O-NO 58 0 min 0,000 mm 0,0 UV-I 0 W/m 5,2 C 8,3 C 0,0 km/h (0 Bft) 0,00 %
28.09.2015 04:02 8,2 C 81 % 1031,2 hPa 0,0 l/m 0,0 km/h (0 Bft) O-NO 70 0 min 0,000 mm 0,0 UV-I 0 W/m 5,1 C 8,2 C 0,0 km/h (0 Bft) 0,00 %
28.09.2015 04:07 8,2 C 81 % 1031,2 hPa 0,0 l/m 0,0 km/h (0 Bft) O 96 0 min 0,000 mm 0,0 UV-I 0 W/m 5,1 C 8,2 C 0,0 km/h (0 Bft) 0,00 %
28.09.2015 04:12 8,2 C 81 % 1031,2 hPa 0,0 l/m 0,0 km/h (0 Bft) O-NO 64 0 min 0,000 mm 0,0 UV-I 0 W/m 5,1 C 8,2 C 0,0 km/h (0 Bft) 0,00 %
28.09.2015 04:17 8,2 C 81 % 1031,1 hPa 0,0 l/m 0,0 km/h (0 Bft) O-SO 113 0 min 0,000 mm 0,0 UV-I 0 W/m 5,1 C 8,2 C 0,0 km/h (0 Bft) 0,00 %
28.09.2015 04:22 8,2 C 82 % 1031,0 hPa 0,0 l/m 0,0 km/h (0 Bft) O-SO 113 0 min 0,000 mm 0,0 UV-I 0 W/m 5,3 C 8,2 C 0,0 km/h (0 Bft) 0,00 %
28.09.2015 04:27 8,1 C 82 % 1031,0 hPa 0,0 l/m 0,0 km/h (0 Bft) O-SO 113 0 min 0,000 mm 0,0 UV-I 0 W/m 5,2 C 8,1 C 0,0 km/h (0 Bft) 0,00 %
28.09.2015 04:32 8,1 C 82 % 1031,0 hPa 0,0 l/m 0,0 km/h (0 Bft) O-SO 113 0 min 0,000 mm 0,0 UV-I 0 W/m 5,2 C 8,1 C 0,0 km/h (0 Bft) 0,00 %
28.09.2015 04:37 8,1 C 82 % 1031,1 hPa 0,0 l/m 0,0 km/h (0 Bft) O-SO 113 0 min 0,000 mm 0,0 UV-I 0 W/m 5,2 C 8,1 C 0,0 km/h (0 Bft) 0,00 %
28.09.2015 04:42 8,1 C 82 % 1031,1 hPa 0,0 l/m 0,0 km/h (0 Bft) O-SO 113 0 min 0,000 mm 0,0 UV-I 0 W/m 5,2 C 8,1 C 0,0 km/h (0 Bft) 0,00 %
28.09.2015 04:47 8,1 C 83 % 1031,1 hPa 0,0 l/m 0,0 km/h (0 Bft) O-SO 113 0 min 0,000 mm 0,0 UV-I 0 W/m 5,4 C 8,1 C 0,0 km/h (0 Bft) 0,00 %
28.09.2015 04:52 8,1 C 83 % 1031,2 hPa 0,0 l/m 0,0 km/h (0 Bft) O-SO 113 0 min 0,000 mm 0,0 UV-I 0 W/m 5,4 C 8,1 C 0,0 km/h (0 Bft) 0,00 %
28.09.2015 04:57 8,1 C 83 % 1031,3 hPa 0,0 l/m 0,0 km/h (0 Bft) O-SO 113 0 min 0,000 mm 0,0 UV-I 0 W/m 5,4 C 8,1 C 0,0 km/h (0 Bft) 0,00 %
28.09.2015 05:02 8,1 C 84 % 1031,3 hPa 0,0 l/m 0,0 km/h (0 Bft) O-SO 113 0 min 0,000 mm 0,0 UV-I 0 W/m 5,6 C 8,1 C 0,0 km/h (0 Bft) 0,00 %
28.09.2015 05:07 8,1 C 84 % 1031,1 hPa 0,0 l/m 0,0 km/h (0 Bft) O-SO 113 0 min 0,000 mm 0,0 UV-I 0 W/m 5,6 C 8,1 C 0,0 km/h (0 Bft) 0,00 %
28.09.2015 05:12 8,1 C 84 % 1031,3 hPa 0,0 l/m 0,0 km/h (0 Bft) O-SO 113 0 min 0,000 mm 0,0 UV-I 0 W/m 5,6 C 8,1 C 0,0 km/h (0 Bft) 0,00 %
28.09.2015 05:17 8,1 C 84 % 1031,1 hPa 0,0 l/m 0,0 km/h (0 Bft) O-SO 113 0 min 0,000 mm 0,0 UV-I 0 W/m 5,6 C 8,1 C 0,0 km/h (0 Bft) 0,00 %
28.09.2015 05:22 8,1 C 84 % 1031,3 hPa 0,0 l/m 0,0 km/h (0 Bft) O-SO 113 0 min 0,000 mm 0,0 UV-I 0 W/m 5,6 C 8,1 C 0,0 km/h (0 Bft) 0,00 %
28.09.2015 05:27 8,1 C 84 % 1031,3 hPa 0,0 l/m 0,0 km/h (0 Bft) O-SO 113 0 min 0,000 mm 0,0 UV-I 0 W/m 5,6 C 8,1 C 0,0 km/h (0 Bft) 0,00 %
28.09.2015 05:32 8,0 C 84 % 1031,2 hPa 0,0 l/m 0,0 km/h (0 Bft) SO 131 0 min 0,000 mm 0,0 UV-I 0 W/m 5,5 C 8,0 C 0,0 km/h (0 Bft) 0,00 %
28.09.2015 05:37 8,0 C 84 % 1031,3 hPa 0,0 l/m 0,0 km/h (0 Bft) SO 131 0 min 0,000 mm 0,0 UV-I 0 W/m 5,5 C 8,0 C 0,0 km/h (0 Bft) 0,00 %
28.09.2015 05:42 8,0 C 84 % 1031,3 hPa 0,0 l/m 0,0 km/h (0 Bft) SO 131 0 min 0,000 mm 0,0 UV-I 0 W/m 5,5 C 8,0 C 0,0 km/h (0 Bft) 0,00 %
28.09.2015 05:47 8,0 C 84 % 1031,4 hPa 0,0 l/m 0,0 km/h (0 Bft) SO 132 0 min 0,000 mm 0,0 UV-I 0 W/m 5,5 C 8,0 C 0,0 km/h (0 Bft) 0,00 %
28.09.2015 05:52 8,0 C 84 % 1031,3 hPa 0,0 l/m 0,0 km/h (0 Bft) SO 132 0 min 0,000 mm 0,0 UV-I 0 W/m 5,5 C 8,0 C 0,0 km/h (0 Bft) 0,00 %
28.09.2015 05:58 8,0 C 84 % 1031,3 hPa 0,0 l/m 0,0 km/h (0 Bft) SO 132 0 min 0,000 mm 0,0 UV-I 0 W/m 5,5 C 8,0 C 0,0 km/h (0 Bft) 0,00 %
28.09.2015 06:03 8,0 C 84 % 1031,3 hPa 0,0 l/m 0,0 km/h (0 Bft) SO 132 0 min 0,000 mm 0,0 UV-I 0 W/m 5,5 C 8,0 C 0,0 km/h (0 Bft) 0,00 %
28.09.2015 06:08 8,0 C 85 % 1031,5 hPa 0,0 l/m 0,0 km/h (0 Bft) SO 134 0 min 0,000 mm 0,0 UV-I 0 W/m 5,6 C 8,0 C 0,0 km/h (0 Bft) 0,00 %
28.09.2015 06:13 8,0 C 85 % 1031,4 hPa 0,0 l/m 0,0 km/h (0 Bft) SO 134 0 min 0,000 mm 0,0 UV-I 0 W/m 5,6 C 8,0 C 0,0 km/h (0 Bft) 0,00 %
28.09.2015 06:18 8,1 C 85 % 1031,4 hPa 0,0 l/m 0,0 km/h (0 Bft) SO 134 0 min 0,000 mm 0,0 UV-I 0 W/m 5,7 C 8,1 C 0,0 km/h (0 Bft) 0,00 %
28.09.2015 06:23 8,1 C 85 % 1031,5 hPa 0,0 l/m 0,0 km/h (0 Bft) SO 134 0 min 0,000 mm 0,0 UV-I 0 W/m 5,7 C 8,1 C 0,0 km/h (0 Bft) 0,00 %
28.09.2015 06:28 8,0 C 85 % 1031,4 hPa 0,0 l/m 0,0 km/h (0 Bft) SO 134 0 min 0,000 mm 0,0 UV-I 0 W/m 5,6 C 8,0 C 0,0 km/h (0 Bft) 0,00 %
28.09.2015 06:33 8,0 C 85 % 1031,4 hPa 0,0 l/m 0,0 km/h (0 Bft) SO 134 0 min 0,000 mm 0,0 UV-I 0 W/m 5,6 C 8,0 C 0,0 km/h (0 Bft) 0,00 %
28.09.2015 06:38 8,0 C 85 % 1031,3 hPa 0,0 l/m 0,0 km/h (0 Bft) SO 134 0 min 0,000 mm 0,0 UV-I 0 W/m 5,6 C 8,0 C 0,0 km/h (0 Bft) 0,00 %
28.09.2015 06:43 8,0 C 86 % 1031,4 hPa 0,0 l/m 0,0 km/h (0 Bft) O 96 0 min 0,000 mm 0,0 UV-I 0 W/m 5,8 C 8,0 C 0,0 km/h (0 Bft) 0,00 %
28.09.2015 06:48 8,0 C 86 % 1031,6 hPa 0,0 l/m 0,0 km/h (0 Bft) O 97 0 min 0,000 mm 0,0 UV-I 0 W/m 5,8 C 8,0 C 0,0 km/h (0 Bft) 0,00 %
28.09.2015 06:53 8,0 C 86 % 1031,7 hPa 0,0 l/m 0,0 km/h (0 Bft) O 98 0 min 0,000 mm 0,0 UV-I 0 W/m 5,8 C 8,0 C 0,0 km/h (0 Bft) 0,00 %
28.09.2015 06:58 8,0 C 86 % 1031,4 hPa 0,0 l/m 0,0 km/h (0 Bft) O 98 0 min 0,000 mm 0,0 UV-I 0 W/m 5,8 C 8,0 C 0,0 km/h (0 Bft) 0,00 %
28.09.2015 07:03 8,0 C 86 % 1031,6 hPa 0,0 l/m 0,0 km/h (0 Bft) O-SO 103 0 min 0,000 mm 0,0 UV-I 0 W/m 5,8 C 8,0 C 0,0 km/h (0 Bft) 0,00 %
28.09.2015 07:08 8,0 C 87 % 1031,7 hPa 0,0 l/m 0,0 km/h (0 Bft) O-SO 113 0 min 0,000 mm 0,0 UV-I 0 W/m 6,0 C 8,0 C 0,0 km/h (0 Bft) 0,00 %
28.09.2015 07:13 8,0 C 87 % 1031,5 hPa 0,0 l/m 0,0 km/h (0 Bft) O-SO 113 0 min 0,000 mm 0,0 UV-I 0 W/m 6,0 C 8,0 C 0,0 km/h (0 Bft) 0,00 %
28.09.2015 07:18 8,0 C 87 % 1031,7 hPa 0,0 l/m 0,0 km/h (0 Bft) O-SO 113 0 min 0,000 mm 0,0 UV-I 0 W/m 6,0 C 8,0 C 0,0 km/h (0 Bft) 0,00 %
28.09.2015 07:23 8,0 C 88 % 1031,6 hPa 0,0 l/m 0,0 km/h (0 Bft) O-SO 116 0 min 0,000 mm 0,0 UV-I 1 W/m 6,1 C 8,0 C 0,0 km/h (0 Bft) 0,00 %
28.09.2015 07:28 8,0 C 88 % 1031,8 hPa 0,0 l/m 0,0 km/h (0 Bft) S-SO 162 0 min 0,000 mm 0,0 UV-I 3 W/m 6,1 C 8,0 C 0,0 km/h (0 Bft) 0,00 %
28.09.2015 07:33 8,0 C 88 % 1031,6 hPa 0,0 l/m 0,0 km/h (0 Bft) O-NO 76 0 min 0,000 mm 0,0 UV-I 5 W/m 6,1 C 8,0 C 0,0 km/h (0 Bft) 0,00 %
28.09.2015 07:38 8,0 C 88 % 1031,6 hPa 0,0 l/m 0,0 km/h (0 Bft) O 100 0 min 0,000 mm 0,0 UV-I 9 W/m 6,1 C 8,0 C 0,0 km/h (0 Bft) 0,00 %
28.09.2015 07:43 8,1 C 88 % 1031,6 hPa 0,0 l/m 0,0 km/h (0 Bft) W 259 0 min 0,000 mm 0,0 UV-I 12 W/m 6,2 C 8,1 C 0,0 km/h (0 Bft) 0,00 %
28.09.2015 07:48 8,1 C 88 % 1031,8 hPa 0,0 l/m 0,0 km/h (0 Bft) W 259 0 min 0,000 mm 0,0 UV-I 18 W/m 6,2 C 8,1 C 0,0 km/h (0 Bft) 0,00 %
28.09.2015 07:53 8,1 C 87 % 1031,9 hPa 0,0 l/m 0,0 km/h (0 Bft) W-SW 256 0 min 0,000 mm 0,0 UV-I 21 W/m 6,1 C 8,1 C 0,0 km/h (0 Bft) 0,00 %
28.09.2015 07:58 8,2 C 87 % 1031,9 hPa 0,0 l/m 0,0 km/h (0 Bft) W-SW 256 0 min 0,000 mm 0,0 UV-I 25 W/m 6,2 C 8,2 C 0,0 km/h (0 Bft) 0,00 %
28.09.2015 08:03 8,2 C 86 % 1032,1 hPa 0,0 l/m 0,0 km/h (0 Bft) S-SO 147 0 min 0,000 mm 0,0 UV-I 28 W/m 6,0 C 8,2 C 0,0 km/h (0 Bft) 0,00 %
28.09.2015 08:08 8,3 C 86 % 1032,2 hPa 0,0 l/m 0,0 km/h (0 Bft) S-SO 147 0 min 0,000 mm 0,0 UV-I 30 W/m 6,1 C 8,3 C 0,0 km/h (0 Bft) 0,00 %
28.09.2015 08:13 8,3 C 86 % 1032,0 hPa 0,0 l/m 0,0 km/h (0 Bft) O-NO 60 0 min 0,000 mm 0,0 UV-I 32 W/m 6,1 C 8,3 C 0,0 km/h (0 Bft) 0,00 %
28.09.2015 08:18 8,4 C 86 % 1032,2 hPa 0,0 l/m 0,0 km/h (0 Bft) NO 50 0 min 0,000 mm 0,0 UV-I 35 W/m 6,2 C 8,4 C 0,0 km/h (0 Bft) 0,00 %
28.09.2015 08:23 8,5 C 86 % 1032,0 hPa 0,0 l/m 0,0 km/h (0 Bft) O-NO 58 0 min 0,000 mm 0,0 UV-I 37 W/m 6,3 C 8,5 C 0,0 km/h (0 Bft) 0,00 %
28.09.2015 08:28 8,5 C 86 % 1032,0 hPa 0,0 l/m 0,0 km/h (0 Bft) O-NO 78 0 min 0,000 mm 0,0 UV-I 38 W/m 6,3 C 8,5 C 0,0 km/h (0 Bft) 0,00 %
28.09.2015 08:33 8,6 C 85 % 1031,9 hPa 0,0 l/m 0,0 km/h (0 Bft) O-NO 63 0 min 0,000 mm 0,0 UV-I 38 W/m 6,2 C 8,6 C 0,0 km/h (0 Bft) 0,00 %
28.09.2015 08:38 8,6 C 85 % 1032,1 hPa 0,0 l/m 0,0 km/h (0 Bft) O-NO 61 0 min 0,000 mm 0,0 UV-I 38 W/m 6,2 C 8,6 C 0,0 km/h (0 Bft) 0,00 %
28.09.2015 08:43 8,7 C 84 % 1032,2 hPa 0,0 l/m 0,0 km/h (0 Bft) S-SW 200 0 min 0,000 mm 0,0 UV-I 40 W/m 6,2 C 8,7 C 0,0 km/h (0 Bft) 0,00 %
28.09.2015 08:48 8,7 C 83 % 1032,3 hPa 0,0 l/m 0,0 km/h (0 Bft) O-NO 76 0 min 0,000 mm 0,0 UV-I 40 W/m 6,0 C 8,7 C 0,0 km/h (0 Bft) 0,00 %
28.09.2015 08:53 8,8 C 82 % 1032,4 hPa 0,0 l/m 0,0 km/h (0 Bft) O-NO 70 0 min 0,000 mm 0,0 UV-I 38 W/m 5,9 C 8,8 C 0,0 km/h (0 Bft) 0,00 %
28.09.2015 08:58 8,9 C 81 % 1032,4 hPa 0,0 l/m 0,0 km/h (0 Bft) O-NO 67 0 min 0,000 mm 0,0 UV-I 29 W/m 5,8 C 8,9 C 0,0 km/h (0 Bft) 0,00 %
28.09.2015 09:03 9,0 C 81 % 1032,4 hPa 0,0 l/m 0,0 km/h (0 Bft) O 100 0 min 0,000 mm 0,0 UV-I 37 W/m 5,9 C 9,0 C 0,0 km/h (0 Bft) 0,00 %
28.09.2015 09:08 9,0 C 81 % 1032,3 hPa 0,0 l/m 0,0 km/h (0 Bft) O-NO 64 0 min 0,000 mm 0,0 UV-I 53 W/m 5,9 C 9,0 C 0,0 km/h (0 Bft) 0,00 %
28.09.2015 09:13 9,0 C 81 % 1032,4 hPa 0,0 l/m 0,0 km/h (0 Bft) O-NO 59 0 min 0,000 mm 0,0 UV-I 67 W/m 5,9 C 9,0 C 0,0 km/h (0 Bft) 0,00 %
28.09.2015 09:18 9,1 C 81 % 1032,4 hPa 0,0 l/m 0,0 km/h (0 Bft) O-NO 69 0 min 0,000 mm 0,0 UV-I 81 W/m 6,0 C 9,1 C 0,0 km/h (0 Bft) 0,00 %
28.09.2015 09:23 9,3 C 81 % 1032,6 hPa 0,0 l/m 0,0 km/h (0 Bft) O-NO 69 0 min 0,000 mm 1,0 UV-I 86 W/m 6,2 C 9,3 C 0,0 km/h (0 Bft) 0,00 %
28.09.2015 09:28 9,4 C 81 % 1032,6 hPa 0,0 l/m 0,0 km/h (0 Bft) O-NO 76 0 min 0,000 mm 0,0 UV-I 85 W/m 6,3 C 9,4 C 0,0 km/h (0 Bft) 0,00 %
28.09.2015 09:33 9,5 C 81 % 1032,5 hPa 0,0 l/m 0,0 km/h (0 Bft) O 93 0 min 0,000 mm 1,0 UV-I 87 W/m 6,4 C 9,5 C 0,0 km/h (0 Bft) 0,00 %
28.09.2015 09:38 9,6 C 80 % 1032,8 hPa 0,0 l/m 0,0 km/h (0 Bft) O-NO 63 0 min 0,000 mm 0,0 UV-I 88 W/m 6,3 C 9,6 C 0,0 km/h (0 Bft) 0,00 %
28.09.2015 09:43 9,7 C 80 % 1032,8 hPa 0,0 l/m 0,0 km/h (0 Bft) NO 54 0 min 0,000 mm 1,0 UV-I 89 W/m 6,4 C 9,7 C 0,0 km/h (0 Bft) 0,00 %
28.09.2015 09:48 9,7 C 81 % 1032,7 hPa 0,0 l/m 0,0 km/h (0 Bft) N-NO 33 0 min 0,000 mm 1,0 UV-I 94 W/m 6,6 C 9,7 C 0,0 km/h (0 Bft) 0,00 %
28.09.2015 09:53 9,7 C 81 % 1032,6 hPa 0,0 l/m 0,0 km/h (0 Bft) SO 131 0 min 0,000 mm 1,0 UV-I 94 W/m 6,6 C 9,7 C 0,0 km/h (0 Bft) 0,00 %
28.09.2015 09:58 9,8 C 80 % 1032,7 hPa 0,0 l/m 0,0 km/h (0 Bft) O-NO 68 0 min 0,000 mm 1,0 UV-I 92 W/m 6,5 C 9,8 C 0,0 km/h (0 Bft) 0,00 %
28.09.2015 10:03 9,8 C 80 % 1032,7 hPa 0,0 l/m 0,0 km/h (0 Bft) NO 45 0 min 0,000 mm 0,0 UV-I 86 W/m 6,5 C 9,8 C 0,0 km/h (0 Bft) 0,00 %
28.09.2015 10:08 9,8 C 80 % 1032,9 hPa 0,0 l/m 0,0 km/h (0 Bft) NO 49 0 min 0,000 mm 0,0 UV-I 78 W/m 6,5 C 9,8 C 0,0 km/h (0 Bft) 0,00 %
28.09.2015 10:13 9,8 C 80 % 1033,0 hPa 0,0 l/m 0,0 km/h (0 Bft) NO 39 0 min 0,000 mm 0,0 UV-I 70 W/m 6,5 C 9,8 C 0,0 km/h (0 Bft) 0,00 %
28.09.2015 10:18 9,8 C 81 % 1033,0 hPa 0,0 l/m 0,0 km/h (0 Bft) NO 56 0 min 0,000 mm 0,0 UV-I 69 W/m 6,7 C 9,8 C 0,0 km/h (0 Bft) 0,00 %
28.09.2015 10:23 9,8 C 81 % 1032,9 hPa 0,0 l/m 0,0 km/h (0 Bft) NO 50 0 min 0,000 mm 1,0 UV-I 100 W/m 6,7 C 9,8 C 0,0 km/h (0 Bft) 0,00 %
28.09.2015 10:28 9,8 C 79 % 1033,0 hPa 0,0 l/m 0,0 km/h (0 Bft) NO 54 0 min 0,000 mm 1,0 UV-I 116 W/m 6,3 C 9,8 C 0,0 km/h (0 Bft) 0,00 %
28.09.2015 10:33 10,0 C 79 % 1033,0 hPa 0,0 l/m 0,0 km/h (0 Bft) O-NO 63 0 min 0,000 mm 1,0 UV-I 97 W/m 6,5 C 10,0 C 0,0 km/h (0 Bft) 0,00 %
28.09.2015 10:38 10,1 C 78 % 1033,1 hPa 0,0 l/m 0,0 km/h (0 Bft) NO 56 0 min 0,000 mm 0,0 UV-I 86 W/m 6,4 C 10,1 C 0,0 km/h (0 Bft) 0,00 %
28.09.2015 10:43 10,2 C 77 % 1033,0 hPa 0,0 l/m 0,0 km/h (0 Bft) NO 48 0 min 0,000 mm 0,0 UV-I 87 W/m 6,4 C 10,2 C 0,0 km/h (0 Bft) 0,00 %
28.09.2015 10:48 10,2 C 78 % 1033,2 hPa 0,0 l/m 0,0 km/h (0 Bft) NO 50 0 min 0,000 mm 0,0 UV-I 68 W/m 6,5 C 10,2 C 0,0 km/h (0 Bft) 0,00 %
28.09.2015 10:53 10,1 C 78 % 1033,2 hPa 0,0 l/m 0,0 km/h (0 Bft) NO 46 0 min 0,000 mm 0,0 UV-I 64 W/m 6,4 C 10,1 C 0,0 km/h (0 Bft) 0,00 %
28.09.2015 10:58 10,1 C 78 % 1033,0 hPa 0,0 l/m 0,0 km/h (0 Bft) NO 53 0 min 0,000 mm 0,0 UV-I 79 W/m 6,4 C 10,1 C 0,0 km/h (0 Bft) 0,00 %
28.09.2015 11:03 10,1 C 77 % 1033,1 hPa 0,0 l/m 0,0 km/h (0 Bft) O-NO 60 0 min 0,000 mm 0,0 UV-I 88 W/m 6,3 C 10,1 C 0,0 km/h (0 Bft) 0,00 %
28.09.2015 11:08 10,1 C 78 % 1033,1 hPa 0,0 l/m 0,0 km/h (0 Bft) O-NO 61 0 min 0,000 mm 0,0 UV-I 90 W/m 6,4 C 10,1 C 0,0 km/h (0 Bft) 0,00 %
28.09.2015 11:13 10,2 C 77 % 1033,1 hPa 0,0 l/m 0,0 km/h (0 Bft) O-NO 67 0 min 0,000 mm 0,0 UV-I 90 W/m 6,4 C 10,2 C 0,0 km/h (0 Bft) 0,00 %
28.09.2015 11:18 10,3 C 77 % 1033,1 hPa 0,0 l/m 0,0 km/h (0 Bft) O-NO 57 0 min 0,000 mm 0,0 UV-I 97 W/m 6,4 C 10,3 C 0,0 km/h (0 Bft) 0,00 %
28.09.2015 11:23 10,3 C 76 % 1032,9 hPa 0,0 l/m 0,7 km/h (0 Bft) O 82 0 min 0,000 mm 1,0 UV-I 126 W/m 6,3 C 10,3 C 4,0 km/h (1 Bft) 0,00 %
28.09.2015 11:28 10,4 C 75 % 1033,1 hPa 0,0 l/m 0,0 km/h (0 Bft) NO 55 0 min 0,000 mm 1,0 UV-I 177 W/m 6,2 C 10,4 C 0,0 km/h (0 Bft) 0,00 %
28.09.2015 11:33 10,6 C 73 % 1032,8 hPa 0,0 l/m 0,0 km/h (0 Bft) O-NO 59 0 min 0,000 mm 1,0 UV-I 238 W/m 6,0 C 10,6 C 0,0 km/h (0 Bft) 0,00 %
28.09.2015 11:38 11,0 C 71 % 1032,6 hPa 0,0 l/m 0,0 km/h (0 Bft) O-NO 68 0 min 0,000 mm 2,0 UV-I 283 W/m 5,9 C 11,0 C 0,0 km/h (0 Bft) 0,00 %
28.09.2015 11:43 11,5 C 71 % 1032,5 hPa 0,0 l/m 0,0 km/h (0 Bft) O-NO 75 0 min 0,000 mm 2,0 UV-I 331 W/m 6,4 C 11,5 C 0,0 km/h (0 Bft) 0,00 %
28.09.2015 11:48 12,0 C 66 % 1032,4 hPa 0,0 l/m 4,0 km/h (1 Bft) O 96 5 min 0,000 mm 2,0 UV-I 530 W/m 5,8 C 12,0 C 7,9 km/h (2 Bft) 0,00 %
28.09.2015 11:53 12,6 C 63 % 1032,2 hPa 0,0 l/m 0,7 km/h (0 Bft) O-SO 108 5 min 0,000 mm 2,0 UV-I 525 W/m 5,7 C 12,6 C 4,0 km/h (1 Bft) 0,00 %
28.09.2015 11:58 13,1 C 61 % 1032,4 hPa 0,0 l/m 0,0 km/h (0 Bft) O-NO 63 5 min 0,000 mm 2,0 UV-I 516 W/m 5,8 C 13,1 C 0,0 km/h (0 Bft) 0,00 %
28.09.2015 12:03 13,4 C 59 % 1032,3 hPa 0,0 l/m 0,0 km/h (0 Bft) O 85 5 min 0,000 mm 2,0 UV-I 542 W/m 5,6 C 13,4 C 0,0 km/h (0 Bft) 0,00 %
28.09.2015 12:08 13,7 C 56 % 1032,1 hPa 0,0 l/m 0,0 km/h (0 Bft) O 88 5 min 0,000 mm 2,0 UV-I 597 W/m 5,1 C 13,7 C 0,0 km/h (0 Bft) 0,00 %
28.09.2015 12:13 14,1 C 57 % 1032,0 hPa 0,0 l/m 0,0 km/h (0 Bft) NO 36 5 min 0,000 mm 3,0 UV-I 717 W/m 5,7 C 14,1 C 0,0 km/h (0 Bft) 0,00 %
28.09.2015 12:18 13,9 C 61 % 1032,0 hPa 0,0 l/m 0,0 km/h (0 Bft) O 80 5 min 0,000 mm 2,0 UV-I 541 W/m 6,5 C 13,9 C 0,0 km/h (0 Bft) 0,00 %
28.09.2015 12:23 13,9 C 54 % 1031,9 hPa 0,0 l/m 0,7 km/h (0 Bft) O 89 5 min 0,000 mm 3,0 UV-I 750 W/m 4,7 C 13,9 C 4,0 km/h (1 Bft) 0,00 %
28.09.2015 12:28 14,7 C 50 % 1032,0 hPa 0,0 l/m 2,2 km/h (1 Bft) NO 38 0 min 0,000 mm 2,0 UV-I 349 W/m 4,4 C 14,7 C 11,9 km/h (2 Bft) 0,00 %
28.09.2015 12:33 14,8 C 53 % 1032,0 hPa 0,0 l/m 0,0 km/h (0 Bft) O-NO 71 0 min 0,000 mm 2,0 UV-I 323 W/m 5,3 C 14,8 C 0,0 km/h (0 Bft) 0,00 %
28.09.2015 12:38 14,5 C 55 % 1032,0 hPa 0,0 l/m 0,7 km/h (0 Bft) N-NO 32 0 min 0,000 mm 1,0 UV-I 313 W/m 5,6 C 14,5 C 4,0 km/h (1 Bft) 0,00 %
28.09.2015 12:43 14,3 C 53 % 1032,1 hPa 0,0 l/m 0,4 km/h (0 Bft) O-SO 108 0 min 0,000 mm 1,0 UV-I 259 W/m 4,9 C 14,3 C 4,0 km/h (1 Bft) 0,00 %
28.09.2015 12:48 14,3 C 55 % 1031,9 hPa 0,0 l/m 0,0 km/h (0 Bft) N-NO 24 5 min 0,000 mm 2,0 UV-I 358 W/m 5,4 C 14,3 C 0,0 km/h (0 Bft) 0,00 %
28.09.2015 12:53 14,1 C 56 % 1031,9 hPa 0,0 l/m 0,0 km/h (0 Bft) SO 138 5 min 0,000 mm 2,0 UV-I 607 W/m 5,5 C 14,1 C 0,0 km/h (0 Bft) 0,00 %
28.09.2015 12:58 14,1 C 53 % 1031,5 hPa 0,0 l/m 0,4 km/h (0 Bft) O-NO 64 5 min 0,000 mm 2,0 UV-I 778 W/m 4,7 C 14,1 C 4,0 km/h (1 Bft) 0,00 %
28.09.2015 13:03 14,4 C 53 % 1031,6 hPa 0,0 l/m 0,0 km/h (0 Bft) O-NO 75 5 min 0,000 mm 3,0 UV-I 895 W/m 4,9 C 14,4 C 0,0 km/h (0 Bft) 0,00 %
28.09.2015 13:08 14,9 C 51 % 1031,8 hPa 0,0 l/m 0,0 km/h (0 Bft) O 84 5 min 0,000 mm 2,0 UV-I 420 W/m 4,9 C 14,9 C 0,0 km/h (0 Bft) 0,00 %
28.09.2015 13:13 15,4 C 50 % 1031,6 hPa 0,0 l/m 2,2 km/h (1 Bft) S-SW 196 5 min 0,000 mm 2,0 UV-I 396 W/m 5,0 C 15,4 C 4,0 km/h (1 Bft) 0,00 %
28.09.2015 13:18 15,4 C 52 % 1031,6 hPa 0,0 l/m 0,0 km/h (0 Bft) O-NO 72 5 min 0,000 mm 2,0 UV-I 446 W/m 5,6 C 15,4 C 0,0 km/h (0 Bft) 0,00 %
28.09.2015 13:23 15,4 C 54 % 1031,7 hPa 0,0 l/m 0,0 km/h (0 Bft) O-NO 73 5 min 0,000 mm 2,0 UV-I 381 W/m 6,1 C 15,4 C 0,0 km/h (0 Bft) 0,00 %
28.09.2015 13:28 15,4 C 49 % 1031,3 hPa 0,0 l/m 0,0 km/h (0 Bft) N-NO 33 5 min 0,000 mm 3,0 UV-I 920 W/m 4,7 C 15,4 C 0,0 km/h (0 Bft) 0,00 %
28.09.2015 13:33 15,9 C 48 % 1031,3 hPa 0,0 l/m 4,3 km/h (1 Bft) S 173 5 min 0,000 mm 2,0 UV-I 869 W/m 4,9 C 15,9 C 7,9 km/h (2 Bft) 0,00 %
28.09.2015 13:38 16,3 C 49 % 1031,4 hPa 0,0 l/m 4,3 km/h (1 Bft) S 180 5 min 0,000 mm 2,0 UV-I 397 W/m 5,6 C 16,3 C 7,9 km/h (2 Bft) 0,00 %
28.09.2015 13:43 16,1 C 50 % 1031,0 hPa 0,0 l/m 0,0 km/h (0 Bft) O 85 5 min 0,000 mm 2,0 UV-I 801 W/m 5,7 C 16,1 C 0,0 km/h (0 Bft) 0,00 %
28.09.2015 13:48 15,7 C 51 % 1031,2 hPa 0,0 l/m 0,0 km/h (0 Bft) O-NO 75 5 min 0,000 mm 2,0 UV-I 544 W/m 5,6 C 15,7 C 0,0 km/h (0 Bft) 0,00 %
28.09.2015 13:53 15,4 C 49 % 1031,1 hPa 0,0 l/m 0,4 km/h (0 Bft) S-SW 193 5 min 0,000 mm 2,0 UV-I 484 W/m 4,7 C 15,4 C 4,0 km/h (1 Bft) 0,00 %
28.09.2015 13:58 15,7 C 47 % 1031,1 hPa 0,0 l/m 0,0 km/h (0 Bft) NO 46 5 min 0,000 mm 2,0 UV-I 538 W/m 4,4 C 15,7 C 0,0 km/h (0 Bft) 0,00 %
28.09.2015 14:03 15,8 C 50 % 1031,3 hPa 0,0 l/m 4,3 km/h (1 Bft) O-SO 113 5 min 0,000 mm 2,0 UV-I 377 W/m 5,4 C 15,8 C 7,9 km/h (2 Bft) 0,00 %
28.09.2015 14:08 15,0 C 50 % 1031,4 hPa 0,0 l/m 0,0 km/h (0 Bft) N 354 5 min 0,000 mm 1,0 UV-I 345 W/m 4,7 C 15,0 C 0,0 km/h (0 Bft) 0,00 %
28.09.2015 14:13 14,6 C 51 % 1031,3 hPa 0,0 l/m 0,0 km/h (0 Bft) O 79 0 min 0,000 mm 1,0 UV-I 300 W/m 4,6 C 14,6 C 0,0 km/h (0 Bft) 0,00 %
28.09.2015 14:18 14,5 C 50 % 1031,3 hPa 0,0 l/m 2,9 km/h (1 Bft) O 96 0 min 0,000 mm 1,0 UV-I 256 W/m 4,2 C 14,5 C 4,0 km/h (1 Bft) 0,00 %
28.09.2015 14:23 14,4 C 51 % 1031,3 hPa 0,0 l/m 5,4 km/h (1 Bft) O-SO 119 0 min 0,000 mm 1,0 UV-I 242 W/m 4,4 C 14,4 C 7,9 km/h (2 Bft) 0,00 %
28.09.2015 14:28 14,3 C 51 % 1031,3 hPa 0,0 l/m 0,0 km/h (0 Bft) O-NO 67 0 min 0,000 mm 1,0 UV-I 234 W/m 4,3 C 14,3 C 0,0 km/h (0 Bft) 0,00 %
28.09.2015 14:33 14,1 C 53 % 1031,1 hPa 0,0 l/m 0,0 km/h (0 Bft) NO 55 5 min 0,000 mm 1,0 UV-I 351 W/m 4,7 C 14,1 C 0,0 km/h (0 Bft) 0,00 %
28.09.2015 14:38 13,9 C 51 % 1030,5 hPa 0,0 l/m 0,0 km/h (0 Bft) NO 53 5 min 0,000 mm 2,0 UV-I 938 W/m 3,9 C 13,9 C 0,0 km/h (0 Bft) 0,00 %
28.09.2015 14:43 14,4 C 49 % 1030,5 hPa 0,0 l/m 0,0 km/h (0 Bft) NO 38 5 min 0,000 mm 2,0 UV-I 994 W/m 3,8 C 14,4 C 0,0 km/h (0 Bft) 0,00 %
28.09.2015 14:48 14,9 C 50 % 1030,5 hPa 0,0 l/m 0,0 km/h (0 Bft) NO 55 5 min 0,000 mm 1,0 UV-I 529 W/m 4,6 C 14,9 C 0,0 km/h (0 Bft) 0,00 %
28.09.2015 14:53 15,0 C 49 % 1030,8 hPa 0,0 l/m 0,0 km/h (0 Bft) N-NO 16 0 min 0,000 mm 1,0 UV-I 252 W/m 4,4 C 15,0 C 0,0 km/h (0 Bft) 0,00 %
28.09.2015 14:58 15,1 C 47 % 1031,3 hPa 0,0 l/m 0,0 km/h (0 Bft) NW 307 0 min 0,000 mm 1,0 UV-I 172 W/m 3,9 C 15,1 C 0,0 km/h (0 Bft) 0,00 %
28.09.2015 15:03 14,9 C 51 % 1031,2 hPa 0,0 l/m 0,0 km/h (0 Bft) O-NO 60 0 min 0,000 mm 1,0 UV-I 137 W/m 4,9 C 14,9 C 0,0 km/h (0 Bft) 0,00 %
28.09.2015 15:08 14,3 C 52 % 1031,2 hPa 0,0 l/m 0,0 km/h (0 Bft) NO 55 0 min 0,000 mm 1,0 UV-I 124 W/m 4,6 C 14,3 C 0,0 km/h (0 Bft) 0,00 %
28.09.2015 15:13 14,0 C 55 % 1031,2 hPa 0,0 l/m 0,0 km/h (0 Bft) O-NO 75 0 min 0,000 mm 0,0 UV-I 112 W/m 5,1 C 14,0 C 0,0 km/h (0 Bft) 0,00 %
28.09.2015 15:18 13,9 C 57 % 1031,1 hPa 0,0 l/m 0,0 km/h (0 Bft) O-NO 62 0 min 0,000 mm 0,0 UV-I 106 W/m 5,5 C 13,9 C 0,0 km/h (0 Bft) 0,00 %
28.09.2015 15:23 13,9 C 57 % 1031,2 hPa 0,0 l/m 0,0 km/h (0 Bft) O-NO 60 0 min 0,000 mm 1,0 UV-I 114 W/m 5,5 C 13,9 C 0,0 km/h (0 Bft) 0,00 %
28.09.2015 15:28 13,8 C 56 % 1031,0 hPa 0,0 l/m 0,0 km/h (0 Bft) O 85 0 min 0,000 mm 1,0 UV-I 121 W/m 5,2 C 13,8 C 0,0 km/h (0 Bft) 0,00 %
28.09.2015 15:33 13,9 C 55 % 1030,3 hPa 0,0 l/m 0,0 km/h (0 Bft) O-NO 64 5 min 0,000 mm 1,0 UV-I 678 W/m 5,0 C 13,9 C 0,0 km/h (0 Bft) 0,00 %
28.09.2015 15:38 14,2 C 53 % 1030,5 hPa 0,0 l/m 0,0 km/h (0 Bft) O-NO 57 5 min 0,000 mm 1,0 UV-I 749 W/m 4,8 C 14,2 C 0,0 km/h (0 Bft) 0,00 %
28.09.2015 15:43 14,7 C 50 % 1030,1 hPa 0,0 l/m 0,4 km/h (0 Bft) O-NO 76 5 min 0,000 mm 1,0 UV-I 830 W/m 4,4 C 14,7 C 4,0 km/h (1 Bft) 0,00 %
28.09.2015 15:48 15,6 C 47 % 1030,3 hPa 0,0 l/m 0,0 km/h (0 Bft) O 84 5 min 0,000 mm 1,0 UV-I 408 W/m 4,3 C 15,6 C 0,0 km/h (0 Bft) 0,00 %
28.09.2015 15:53 16,1 C 46 % 1030,6 hPa 0,0 l/m 0,0 km/h (0 Bft) O-NO 58 5 min 0,000 mm 1,0 UV-I 255 W/m 4,5 C 16,1 C 0,0 km/h (0 Bft) 0,00 %
28.09.2015 15:58 15,9 C 49 % 1030,9 hPa 0,0 l/m 0,0 km/h (0 Bft) NO 36 0 min 0,000 mm 1,0 UV-I 174 W/m 5,2 C 15,9 C 0,0 km/h (0 Bft) 0,00 %
28.09.2015 16:03 15,5 C 50 % 1030,8 hPa 0,0 l/m 0,0 km/h (0 Bft) O-NO 57 0 min 0,000 mm 1,0 UV-I 146 W/m 5,1 C 15,5 C 0,0 km/h (0 Bft) 0,00 %
28.09.2015 16:08 14,9 C 51 % 1030,9 hPa 0,0 l/m 0,0 km/h (0 Bft) NO 43 0 min 0,000 mm 1,0 UV-I 139 W/m 4,9 C 14,9 C 0,0 km/h (0 Bft) 0,00 %
28.09.2015 16:13 14,7 C 53 % 1031,0 hPa 0,0 l/m 0,0 km/h (0 Bft) O-NO 58 0 min 0,000 mm 1,0 UV-I 160 W/m 5,2 C 14,7 C 0,0 km/h (0 Bft) 0,00 %
28.09.2015 16:18 14,6 C 52 % 1030,1 hPa 0,0 l/m 0,0 km/h (0 Bft) N-NO 17 5 min 0,000 mm 1,0 UV-I 706 W/m 4,9 C 14,6 C 0,0 km/h (0 Bft) 0,00 %
28.09.2015 16:23 14,8 C 49 % 1030,1 hPa 0,0 l/m 0,0 km/h (0 Bft) O-NO 68 5 min 0,000 mm 1,0 UV-I 771 W/m 4,2 C 14,8 C 0,0 km/h (0 Bft) 0,00 %
28.09.2015 16:28 15,6 C 44 % 1030,3 hPa 0,0 l/m 0,0 km/h (0 Bft) O 79 5 min 0,000 mm 1,0 UV-I 277 W/m 3,4 C 15,6 C 0,0 km/h (0 Bft) 0,00 %
28.09.2015 16:33 16,4 C 42 % 1030,5 hPa 0,0 l/m 0,0 km/h (0 Bft) O-NO 61 5 min 0,000 mm 1,0 UV-I 201 W/m 3,5 C 16,4 C 0,0 km/h (0 Bft) 0,00 %
28.09.2015 16:38 16,5 C 42 % 1029,7 hPa 0,0 l/m 0,0 km/h (0 Bft) O-NO 60 5 min 0,000 mm 1,0 UV-I 681 W/m 3,5 C 16,5 C 0,0 km/h (0 Bft) 0,00 %
28.09.2015 16:43 16,3 C 45 % 1029,8 hPa 0,0 l/m 3,2 km/h (1 Bft) O-SO 117 5 min 0,000 mm 1,0 UV-I 518 W/m 4,3 C 16,3 C 4,0 km/h (1 Bft) 0,00 %
28.09.2015 16:48 16,5 C 44 % 1029,9 hPa 0,0 l/m 0,0 km/h (0 Bft) O-NO 67 5 min 0,000 mm 1,0 UV-I 578 W/m 4,2 C 16,5 C 0,0 km/h (0 Bft) 0,00 %
28.09.2015 16:53 16,9 C 42 % 1030,1 hPa 0,0 l/m 2,9 km/h (1 Bft) SW 224 5 min 0,000 mm 1,0 UV-I 363 W/m 3,9 C 16,9 C 4,0 km/h (1 Bft) 0,00 %
28.09.2015 16:58 17,0 C 42 % 1030,0 hPa 0,0 l/m 0,0 km/h (0 Bft) O-SO 120 5 min 0,000 mm 1,0 UV-I 383 W/m 4,0 C 17,0 C 0,0 km/h (0 Bft) 0,00 %
28.09.2015 17:03 16,8 C 44 % 1029,9 hPa 0,0 l/m 2,2 km/h (1 Bft) S 178 5 min 0,000 mm 1,0 UV-I 568 W/m 4,5 C 16,8 C 4,0 km/h (1 Bft) 0,00 %
28.09.2015 17:08 16,7 C 41 % 1029,9 hPa 0,0 l/m 0,0 km/h (0 Bft) SO 129 5 min 0,000 mm 1,0 UV-I 502 W/m 3,4 C 16,7 C 0,0 km/h (0 Bft) 0,00 %
28.09.2015 17:13 16,7 C 43 % 1029,8 hPa 0,0 l/m 0,0 km/h (0 Bft) O-NO 63 5 min 0,000 mm 1,0 UV-I 516 W/m 4,1 C 16,7 C 0,0 km/h (0 Bft) 0,00 %
28.09.2015 17:18 16,8 C 43 % 1030,0 hPa 0,0 l/m 0,0 km/h (0 Bft) S-SO 155 5 min 0,000 mm 1,0 UV-I 552 W/m 4,2 C 16,8 C 0,0 km/h (0 Bft) 0,00 %
28.09.2015 17:23 16,9 C 42 % 1029,8 hPa 0,0 l/m 0,0 km/h (0 Bft) S 178 5 min 0,000 mm 1,0 UV-I 550 W/m 3,9 C 16,9 C 0,0 km/h (0 Bft) 0,00 %
28.09.2015 17:28 17,1 C 43 % 1030,3 hPa 0,0 l/m 0,0 km/h (0 Bft) O-NO 63 5 min 0,000 mm 1,0 UV-I 253 W/m 4,4 C 17,1 C 0,0 km/h (0 Bft) 0,00 %
28.09.2015 17:33 17,0 C 45 % 1030,8 hPa 0,0 l/m 0,0 km/h (0 Bft) N-NO 33 0 min 0,000 mm 0,0 UV-I 112 W/m 5,0 C 17,0 C 0,0 km/h (0 Bft) 0,00 %
28.09.2015 17:38 16,3 C 45 % 1030,7 hPa 0,0 l/m 0,0 km/h (0 Bft) O-NO 69 5 min 0,000 mm 0,0 UV-I 118 W/m 4,3 C 16,3 C 0,0 km/h (0 Bft) 0,00 %
28.09.2015 17:43 15,6 C 48 % 1030,8 hPa 0,0 l/m 0,0 km/h (0 Bft) O-SO 114 5 min 0,000 mm 0,0 UV-I 101 W/m 4,6 C 15,6 C 0,0 km/h (0 Bft) 0,00 %
28.09.2015 17:48 15,3 C 50 % 1030,6 hPa 0,0 l/m 0,0 km/h (0 Bft) NO 45 0 min 0,000 mm 0,0 UV-I 85 W/m 4,9 C 15,3 C 0,0 km/h (0 Bft) 0,00 %
28.09.2015 17:53 15,1 C 51 % 1030,7 hPa 0,0 l/m 0,0 km/h (0 Bft) N 354 0 min 0,000 mm 0,0 UV-I 75 W/m 5,0 C 15,1 C 0,0 km/h (0 Bft) 0,00 %
28.09.2015 17:58 14,8 C 51 % 1030,9 hPa 0,0 l/m 0,0 km/h (0 Bft) O-NO 63 0 min 0,000 mm 0,0 UV-I 73 W/m 4,8 C 14,8 C 0,0 km/h (0 Bft) 0,00 %
28.09.2015 18:03 14,5 C 53 % 1030,9 hPa 0,0 l/m 0,0 km/h (0 Bft) O 100 0 min 0,000 mm 0,0 UV-I 66 W/m 5,0 C 14,5 C 0,0 km/h (0 Bft) 0,00 %
28.09.2015 18:08 14,3 C 55 % 1030,9 hPa 0,0 l/m 0,0 km/h (0 Bft) S 175 0 min 0,000 mm 0,0 UV-I 53 W/m 5,4 C 14,3 C 0,0 km/h (0 Bft) 0,00 %
28.09.2015 18:13 14,0 C 57 % 1031,0 hPa 0,0 l/m 0,0 km/h (0 Bft) O-NO 70 0 min 0,000 mm 0,0 UV-I 39 W/m 5,6 C 14,0 C 0,0 km/h (0 Bft) 0,00 %
28.09.2015 18:18 13,8 C 57 % 1031,0 hPa 0,0 l/m 0,0 km/h (0 Bft) O-SO 112 0 min 0,000 mm 0,0 UV-I 28 W/m 5,4 C 13,8 C 0,0 km/h (0 Bft) 0,00 %
28.09.2015 18:23 13,6 C 57 % 1031,1 hPa 0,0 l/m 0,0 km/h (0 Bft) O 97 0 min 0,000 mm 0,0 UV-I 19 W/m 5,2 C 13,6 C 0,0 km/h (0 Bft) 0,00 %
28.09.2015 18:28 13,3 C 58 % 1031,3 hPa 0,0 l/m 0,0 km/h (0 Bft) SO 128 0 min 0,000 mm 0,0 UV-I 16 W/m 5,2 C 13,3 C 0,0 km/h (0 Bft) 0,00 %
28.09.2015 18:33 13,1 C 62 % 1031,2 hPa 0,0 l/m 0,0 km/h (0 Bft) O 95 0 min 0,000 mm 0,0 UV-I 10 W/m 6,0 C 13,1 C 0,0 km/h (0 Bft) 0,00 %
28.09.2015 18:38 12,8 C 64 % 1031,3 hPa 0,0 l/m 0,0 km/h (0 Bft) O 94 0 min 0,000 mm 0,0 UV-I 5 W/m 6,2 C 12,8 C 0,0 km/h (0 Bft) 0,00 %
28.09.2015 18:43 12,6 C 64 % 1031,6 hPa 0,0 l/m 0,0 km/h (0 Bft) O 89 0 min 0,000 mm 0,0 UV-I 2 W/m 6,0 C 12,6 C 0,0 km/h (0 Bft) 0,00 %
28.09.2015 18:48 12,4 C 66 % 1031,5 hPa 0,0 l/m 0,0 km/h (0 Bft) O-NO 60 0 min 0,000 mm 0,0 UV-I 0 W/m 6,2 C 12,4 C 0,0 km/h (0 Bft) 0,00 %
28.09.2015 18:53 12,1 C 67 % 1031,6 hPa 0,0 l/m 0,0 km/h (0 Bft) O 88 0 min 0,000 mm 0,0 UV-I 0 W/m 6,2 C 12,1 C 0,0 km/h (0 Bft) 0,00 %
28.09.2015 18:58 12,0 C 68 % 1031,5 hPa 0,0 l/m 0,0 km/h (0 Bft) O 88 0 min 0,000 mm 0,0 UV-I 0 W/m 6,3 C 12,0 C 0,0 km/h (0 Bft) 0,00 %
28.09.2015 19:03 11,8 C 68 % 1031,5 hPa 0,0 l/m 0,0 km/h (0 Bft) O 98 0 min 0,000 mm 0,0 UV-I 0 W/m 6,1 C 11,8 C 0,0 km/h (0 Bft) 0,00 %
28.09.2015 19:08 11,5 C 68 % 1031,5 hPa 0,0 l/m 0,0 km/h (0 Bft) O-NO 61 0 min 0,000 mm 0,0 UV-I 0 W/m 5,8 C 11,5 C 0,0 km/h (0 Bft) 0,00 %
28.09.2015 19:13 11,4 C 68 % 1031,7 hPa 0,0 l/m 0,0 km/h (0 Bft) O-NO 78 0 min 0,000 mm 0,0 UV-I 0 W/m 5,7 C 11,4 C 0,0 km/h (0 Bft) 0,00 %
28.09.2015 19:18 11,2 C 69 % 1031,6 hPa 0,0 l/m 0,0 km/h (0 Bft) O-NO 78 0 min 0,000 mm 0,0 UV-I 0 W/m 5,7 C 11,2 C 0,0 km/h (0 Bft) 0,00 %
28.09.2015 19:23 11,1 C 70 % 1031,5 hPa 0,0 l/m 0,0 km/h (0 Bft) O-NO 78 0 min 0,000 mm 0,0 UV-I 0 W/m 5,8 C 11,1 C 0,0 km/h (0 Bft) 0,00 %
28.09.2015 19:28 10,8 C 70 % 1031,6 hPa 0,0 l/m 0,0 km/h (0 Bft) O 83 0 min 0,000 mm 0,0 UV-I 0 W/m 5,6 C 10,8 C 0,0 km/h (0 Bft) 0,00 %
28.09.2015 19:33 10,5 C 70 % 1031,7 hPa 0,0 l/m 0,0 km/h (0 Bft) NO 51 0 min 0,000 mm 0,0 UV-I 0 W/m 5,3 C 10,5 C 0,0 km/h (0 Bft) 0,00 %
28.09.2015 19:38 10,5 C 70 % 1031,9 hPa 0,0 l/m 0,0 km/h (0 Bft) O-NO 61 0 min 0,000 mm 0,0 UV-I 0 W/m 5,3 C 10,5 C 0,0 km/h (0 Bft) 0,00 %
28.09.2015 19:43 10,4 C 70 % 1031,8 hPa 0,0 l/m 0,0 km/h (0 Bft) O-NO 62 0 min 0,000 mm 0,0 UV-I 0 W/m 5,2 C 10,4 C 0,0 km/h (0 Bft) 0,00 %
28.09.2015 19:48 10,3 C 63 % 1031,8 hPa 0,0 l/m 0,0 km/h (0 Bft) NO 46 0 min 0,000 mm 0,0 UV-I 0 W/m 3,6 C 10,3 C 0,0 km/h (0 Bft) 0,00 %
28.09.2015 19:53 10,5 C 60 % 1031,7 hPa 0,0 l/m 0,0 km/h (0 Bft) O-NO 63 0 min 0,000 mm 0,0 UV-I 0 W/m 3,1 C 10,5 C 0,0 km/h (0 Bft) 0,00 %
28.09.2015 19:58 10,8 C 61 % 1032,0 hPa 0,0 l/m 0,0 km/h (0 Bft) O-NO 59 0 min 0,000 mm 0,0 UV-I 0 W/m 3,6 C 10,8 C 0,0 km/h (0 Bft) 0,00 %
28.09.2015 20:03 10,8 C 61 % 1032,0 hPa 0,0 l/m 0,0 km/h (0 Bft) O-NO 59 0 min 0,000 mm 0,0 UV-I 0 W/m 3,6 C 10,8 C 0,0 km/h (0 Bft) 0,00 %
28.09.2015 20:08 10,7 C 62 % 1032,0 hPa 0,0 l/m 0,0 km/h (0 Bft) O-NO 73 0 min 0,000 mm 0,0 UV-I 0 W/m 3,7 C 10,7 C 0,0 km/h (0 Bft) 0,00 %
28.09.2015 20:13 10,5 C 63 % 1031,9 hPa 0,0 l/m 0,0 km/h (0 Bft) O-NO 67 0 min 0,000 mm 0,0 UV-I 0 W/m 3,8 C 10,5 C 0,0 km/h (0 Bft) 0,00 %
28.09.2015 20:18 10,5 C 64 % 1032,0 hPa 0,0 l/m 0,0 km/h (0 Bft) O-NO 63 0 min 0,000 mm 0,0 UV-I 0 W/m 4,0 C 10,5 C 0,0 km/h (0 Bft) 0,00 %
28.09.2015 20:23 10,5 C 64 % 1032,1 hPa 0,0 l/m 0,0 km/h (0 Bft) O-NO 65 0 min 0,000 mm 0,0 UV-I 0 W/m 4,0 C 10,5 C 0,0 km/h (0 Bft) 0,00 %
28.09.2015 20:28 10,4 C 64 % 1032,2 hPa 0,0 l/m 0,0 km/h (0 Bft) O-NO 66 0 min 0,000 mm 0,0 UV-I 0 W/m 3,9 C 10,4 C 0,0 km/h (0 Bft) 0,00 %
28.09.2015 20:33 10,3 C 63 % 1032,1 hPa 0,0 l/m 0,0 km/h (0 Bft) O-NO 74 0 min 0,000 mm 0,0 UV-I 0 W/m 3,6 C 10,3 C 0,0 km/h (0 Bft) 0,00 %
28.09.2015 20:38 10,2 C 63 % 1032,2 hPa 0,0 l/m 0,0 km/h (0 Bft) O-NO 64 0 min 0,000 mm 0,0 UV-I 0 W/m 3,5 C 10,2 C 0,0 km/h (0 Bft) 0,00 %
28.09.2015 20:43 10,1 C 62 % 1032,1 hPa 0,0 l/m 0,0 km/h (0 Bft) O-NO 71 0 min 0,000 mm 0,0 UV-I 0 W/m 3,2 C 10,1 C 0,0 km/h (0 Bft) 0,00 %
28.09.2015 20:48 10,0 C 62 % 1032,3 hPa 0,0 l/m 0,0 km/h (0 Bft) O-NO 63 0 min 0,000 mm 0,0 UV-I 0 W/m 3,1 C 10,0 C 0,0 km/h (0 Bft) 0,00 %
28.09.2015 20:53 10,0 C 62 % 1032,0 hPa 0,0 l/m 0,0 km/h (0 Bft) O-NO 62 0 min 0,000 mm 0,0 UV-I 0 W/m 3,1 C 10,0 C 0,0 km/h (0 Bft) 0,00 %
28.09.2015 20:58 10,0 C 62 % 1032,1 hPa 0,0 l/m 0,0 km/h (0 Bft) O-NO 69 0 min 0,000 mm 0,0 UV-I 0 W/m 3,1 C 10,0 C 0,0 km/h (0 Bft) 0,00 %
28.09.2015 21:03 9,9 C 62 % 1032,2 hPa 0,0 l/m 0,0 km/h (0 Bft) NO 53 0 min 0,000 mm 0,0 UV-I 0 W/m 3,0 C 9,9 C 0,0 km/h (0 Bft) 0,00 %
28.09.2015 21:08 9,8 C 62 % 1032,3 hPa 0,0 l/m 0,0 km/h (0 Bft) O-NO 59 0 min 0,000 mm 0,0 UV-I 0 W/m 2,9 C 9,8 C 0,0 km/h (0 Bft) 0,00 %
28.09.2015 21:13 9,7 C 62 % 1032,5 hPa 0,0 l/m 0,0 km/h (0 Bft) O-NO 71 0 min 0,000 mm 0,0 UV-I 0 W/m 2,8 C 9,7 C 0,0 km/h (0 Bft) 0,00 %
28.09.2015 21:18 9,6 C 62 % 1032,3 hPa 0,0 l/m 0,0 km/h (0 Bft) O-NO 74 0 min 0,000 mm 0,0 UV-I 0 W/m 2,7 C 9,6 C 0,0 km/h (0 Bft) 0,00 %
28.09.2015 21:23 9,6 C 62 % 1032,2 hPa 0,0 l/m 0,0 km/h (0 Bft) O 79 0 min 0,000 mm 0,0 UV-I 0 W/m 2,7 C 9,6 C 0,0 km/h (0 Bft) 0,00 %
28.09.2015 21:28 9,5 C 62 % 1032,3 hPa 0,0 l/m 0,0 km/h (0 Bft) NO 50 0 min 0,000 mm 0,0 UV-I 0 W/m 2,6 C 9,5 C 0,0 km/h (0 Bft) 0,00 %
28.09.2015 21:33 9,5 C 63 % 1032,4 hPa 0,0 l/m 0,0 km/h (0 Bft) NO 53 0 min 0,000 mm 0,0 UV-I 0 W/m 2,8 C 9,5 C 0,0 km/h (0 Bft) 0,00 %
28.09.2015 21:38 9,4 C 62 % 1032,4 hPa 0,0 l/m 0,0 km/h (0 Bft) NO 51 0 min 0,000 mm 0,0 UV-I 0 W/m 2,5 C 9,4 C 0,0 km/h (0 Bft) 0,00 %
28.09.2015 21:43 9,3 C 63 % 1032,4 hPa 0,0 l/m 0,0 km/h (0 Bft) O-NO 58 0 min 0,000 mm 0,0 UV-I 0 W/m 2,6 C 9,3 C 0,0 km/h (0 Bft) 0,00 %
28.09.2015 21:48 9,2 C 63 % 1032,4 hPa 0,0 l/m 0,0 km/h (0 Bft) O-NO 66 0 min 0,000 mm 0,0 UV-I 0 W/m 2,5 C 9,2 C 0,0 km/h (0 Bft) 0,00 %
28.09.2015 21:53 9,1 C 63 % 1032,5 hPa 0,0 l/m 0,0 km/h (0 Bft) O-NO 62 0 min 0,000 mm 0,0 UV-I 0 W/m 2,4 C 9,1 C 0,0 km/h (0 Bft) 0,00 %
28.09.2015 21:58 9,0 C 65 % 1032,6 hPa 0,0 l/m 0,0 km/h (0 Bft) O-NO 73 0 min 0,000 mm 0,0 UV-I 0 W/m 2,8 C 9,0 C 0,0 km/h (0 Bft) 0,00 %
28.09.2015 22:03 8,8 C 65 % 1032,6 hPa 0,0 l/m 0,0 km/h (0 Bft) O-NO 59 0 min 0,000 mm 0,0 UV-I 0 W/m 2,6 C 8,8 C 0,0 km/h (0 Bft) 0,00 %
28.09.2015 22:08 8,5 C 65 % 1032,7 hPa 0,0 l/m 0,0 km/h (0 Bft) O-NO 61 0 min 0,000 mm 0,0 UV-I 0 W/m 2,3 C 8,5 C 0,0 km/h (0 Bft) 0,00 %
28.09.2015 22:13 8,5 C 66 % 1032,6 hPa 0,0 l/m 0,0 km/h (0 Bft) O-NO 77 0 min 0,000 mm 0,0 UV-I 0 W/m 2,5 C 8,5 C 0,0 km/h (0 Bft) 0,00 %
28.09.2015 22:18 8,6 C 65 % 1032,4 hPa 0,0 l/m 2,9 km/h (1 Bft) NO 56 0 min 0,000 mm 0,0 UV-I 0 W/m 2,4 C 8,6 C 4,0 km/h (1 Bft) 0,00 %
28.09.2015 22:23 8,9 C 64 % 1032,8 hPa 0,0 l/m 0,0 km/h (0 Bft) O-NO 65 0 min 0,000 mm 0,0 UV-I 0 W/m 2,5 C 8,9 C 0,0 km/h (0 Bft) 0,00 %
28.09.2015 22:28 9,0 C 65 % 1032,7 hPa 0,0 l/m 0,0 km/h (0 Bft) NO 55 0 min 0,000 mm 0,0 UV-I 0 W/m 2,8 C 9,0 C 0,0 km/h (0 Bft) 0,00 %
28.09.2015 22:33 9,0 C 64 % 1032,6 hPa 0,0 l/m 0,0 km/h (0 Bft) O-NO 65 0 min 0,000 mm 0,0 UV-I 0 W/m 2,6 C 9,0 C 0,0 km/h (0 Bft) 0,00 %
28.09.2015 22:38 9,0 C 65 % 1032,7 hPa 0,0 l/m 1,4 km/h (1 Bft) O 86 0 min 0,000 mm 0,0 UV-I 0 W/m 2,8 C 9,0 C 4,0 km/h (1 Bft) 0,00 %
28.09.2015 22:43 9,0 C 66 % 1032,6 hPa 0,0 l/m 0,0 km/h (0 Bft) O-NO 64 0 min 0,000 mm 0,0 UV-I 0 W/m 3,0 C 9,0 C 0,0 km/h (0 Bft) 0,00 %
28.09.2015 22:48 8,9 C 66 % 1032,7 hPa 0,0 l/m 0,7 km/h (0 Bft) O-NO 71 0 min 0,000 mm 0,0 UV-I 0 W/m 2,9 C 8,9 C 4,0 km/h (1 Bft) 0,00 %
28.09.2015 22:53 8,8 C 66 % 1032,7 hPa 0,0 l/m 0,0 km/h (0 Bft) O-NO 62 0 min 0,000 mm 0,0 UV-I 0 W/m 2,8 C 8,8 C 0,0 km/h (0 Bft) 0,00 %
28.09.2015 22:59 8,8 C 67 % 1032,7 hPa 0,0 l/m 0,0 km/h (0 Bft) O-NO 58 0 min 0,000 mm 0,0 UV-I 0 W/m 3,0 C 8,8 C 0,0 km/h (0 Bft) 0,00 %
28.09.2015 23:04 8,8 C 67 % 1032,7 hPa 0,0 l/m 0,0 km/h (0 Bft) O-NO 74 0 min 0,000 mm 0,0 UV-I 0 W/m 3,0 C 8,8 C 0,0 km/h (0 Bft) 0,00 %
28.09.2015 23:09 8,7 C 67 % 1032,7 hPa 0,0 l/m 3,2 km/h (1 Bft) O 91 0 min 0,000 mm 0,0 UV-I 0 W/m 2,9 C 8,7 C 4,0 km/h (1 Bft) 0,00 %
28.09.2015 23:14 8,7 C 66 % 1032,7 hPa 0,0 l/m 0,0 km/h (0 Bft) O 87 0 min 0,000 mm 0,0 UV-I 0 W/m 2,7 C 8,7 C 0,0 km/h (0 Bft) 0,00 %
28.09.2015 23:19 8,7 C 67 % 1032,7 hPa 0,0 l/m 0,0 km/h (0 Bft) O 83 0 min 0,000 mm 0,0 UV-I 0 W/m 2,9 C 8,7 C 0,0 km/h (0 Bft) 0,00 %
28.09.2015 23:24 8,6 C 69 % 1032,8 hPa 0,0 l/m 0,0 km/h (0 Bft) O 91 0 min 0,000 mm 0,0 UV-I 0 W/m 3,2 C 8,6 C 0,0 km/h (0 Bft) 0,00 %
28.09.2015 23:29 8,4 C 72 % 1032,8 hPa 0,0 l/m 0,0 km/h (0 Bft) O 88 0 min 0,000 mm 0,0 UV-I 0 W/m 3,7 C 8,4 C 0,0 km/h (0 Bft) 0,00 %
28.09.2015 23:34 8,0 C 73 % 1032,8 hPa 0,0 l/m 0,0 km/h (0 Bft) O 85 0 min 0,000 mm 0,0 UV-I 0 W/m 3,5 C 8,0 C 0,0 km/h (0 Bft) 0,00 %
28.09.2015 23:39 7,8 C 74 % 1032,7 hPa 0,0 l/m 0,0 km/h (0 Bft) O 84 0 min 0,000 mm 0,0 UV-I 0 W/m 3,5 C 7,8 C 0,0 km/h (0 Bft) 0,00 %
28.09.2015 23:44 7,5 C 75 % 1032,7 hPa 0,0 l/m 0,0 km/h (0 Bft) O 87 0 min 0,000 mm 0,0 UV-I 0 W/m 3,4 C 7,5 C 0,0 km/h (0 Bft) 0,00 %
28.09.2015 23:49 7,2 C 75 % 1032,7 hPa 0,0 l/m 0,0 km/h (0 Bft) O 93 0 min 0,000 mm 0,0 UV-I 0 W/m 3,1 C 7,2 C 0,0 km/h (0 Bft) 0,00 %
28.09.2015 23:54 7,0 C 77 % 1032,8 hPa 0,0 l/m 0,0 km/h (0 Bft) O 98 0 min 0,000 mm 0,0 UV-I 0 W/m 3,2 C 7,0 C 0,0 km/h (0 Bft) 0,00 %
28.09.2015 23:59 6,9 C 78 % 1032,6 hPa 0,0 l/m 0,0 km/h (0 Bft) O 98 0 min 0,000 mm 0,0 UV-I 0 W/m 3,3 C 6,9 C 0,0 km/h (0 Bft) 0,00 %
_ Min-Zeit 23:59 17:08 16:38 - 00:02 - - - - - - 22:08 23:59 00:02 00:02
Minimum _ 6,9 C 41 % 1029,7 hPa - 0,0 km/h (0 Bft) - - - - - - 2,3 C 6,9 C 0,0 km/h (0 Bft) 0,00 %
_ Max-Zeit 17:28 07:23 10:48 00:02 14:23 - - 11:48 00:02 12:13 14:43 10:18 17:28 12:28 00:02
Maximum _ 17,1 C 88 % 1033,2 hPa 0,0 l/m 5,4 km/h
O-SO (1 Bft)
- - 5 min 0,000 mm 3,0 UV-I 994 W/m 6,7 C 17,1 C 11,9 km/h
NO (2 Bft)
0,00 %
Durchschnitt _ 10,7 C 69 % 1031,6 hPa #0,0 l/m 0,2 km/h (0 Bft) O - #4:15 h #0,000 mm 1,4 UV-I 265 W/m 4,9 C 10,7 C 0,4 km/h (0 Bft) 0,00 %